�������l�o���
Date,Time,MP-1(��Sv/h),MP-2(��Sv/h),MP-3(��Sv/h),MP-4(��Sv/h),MP-5(��Sv/h),MP-6(��Sv/h),MP-7(��Sv/h),MP-8(��Sv/h),����,����(m/s),���J
2016/10/09,00:00,1.137,1.871,1.342,2.059,1.442,0.601,1.055,0.973,��,5.8,��
2016/10/09,00:10,1.140,1.873,1.342,2.057,1.440,0.599,1.053,0.975,��,5.5,��
2016/10/09,00:20,1.141,1.874,1.341,2.064,1.441,0.600,1.056,0.974,��,6.1,��
2016/10/09,00:30,1.136,1.873,1.342,2.061,1.441,0.600,1.056,0.975,��,7.5,��
2016/10/09,00:40,1.137,1.875,1.341,2.061,1.444,0.600,1.057,0.974,��,8.0,��
2016/10/09,00:50,1.138,1.874,1.344,2.062,1.442,0.601,1.056,0.974,��,7.2,��
2016/10/09,01:00,1.137,1.871,1.344,2.057,1.441,0.601,1.057,0.976,��,8.5,��
2016/10/09,01:10,1.139,1.870,1.343,2.062,1.444,0.601,1.057,0.975,��,6.6,��
2016/10/09,01:20,1.139,1.874,1.343,2.063,1.445,0.601,1.057,0.973,��,7.4,��
2016/10/09,01:30,1.139,1.875,1.344,2.061,1.444,0.601,1.056,0.975,��쓌,8.0,��
2016/10/09,01:40,1.138,1.874,1.342,2.061,1.444,0.600,1.054,0.974,��,7.7,��
2016/10/09,01:50,1.138,1.875,1.342,2.062,1.444,0.601,1.056,0.976,��,5.8,��
2016/10/09,02:00,1.137,1.872,1.342,2.063,1.442,0.601,1.057,0.975,��,4.5,��
2016/10/09,02:10,1.139,1.874,1.344,2.065,1.446,0.600,1.056,0.976,��쐼,3.2,��
2016/10/09,02:20,1.140,1.877,1.342,2.061,1.444,0.601,1.054,0.977,��,3.2,��
2016/10/09,02:30,1.140,1.878,1.342,2.063,1.443,0.600,1.058,0.976,��,3.4,��
2016/10/09,02:40,1.138,1.874,1.344,2.063,1.445,0.602,1.057,0.975,��쐼,4.4,��
2016/10/09,02:50,1.139,1.875,1.342,2.064,1.444,0.601,1.056,0.975,��쐼,6.1,��
2016/10/09,03:00,1.138,1.876,1.345,2.062,1.445,0.602,1.057,0.977,��쐼,6.6,��
2016/10/09,03:10,1.139,1.873,1.344,2.063,1.444,0.603,1.058,0.977,��쐼,5.5,��
2016/10/09,03:20,1.138,1.875,1.345,2.065,1.447,0.600,1.057,0.976,��쐼,5.5,��
2016/10/09,03:30,1.137,1.877,1.345,2.064,1.445,0.601,1.056,0.976,��쐼,6.6,��
2016/10/09,03:40,1.141,1.877,1.344,2.065,1.449,0.600,1.058,0.978,�쐼,4.6,��
2016/10/09,03:50,1.140,1.876,1.345,2.063,1.446,0.603,1.057,0.976,��쐼,4.7,��
2016/10/09,04:00,1.140,1.876,1.347,2.066,1.446,0.601,1.058,0.977,��쐼,5.8,��
2016/10/09,04:10,1.140,1.877,1.345,2.065,1.448,0.602,1.059,0.975,��쐼,5.5,��
2016/10/09,04:20,1.137,1.875,1.343,2.064,1.447,0.601,1.058,0.977,��쐼,4.4,��
2016/10/09,04:30,1.138,1.875,1.346,2.065,1.448,0.600,1.057,0.979,�쐼,4.4,��
2016/10/09,04:40,1.137,1.873,1.345,2.063,1.448,0.601,1.058,0.978,���쐼,5.0,��
2016/10/09,04:50,1.139,1.877,1.344,2.066,1.447,0.601,1.057,0.976,���쐼,5.2,��
2016/10/09,05:00,1.139,1.875,1.347,2.066,1.445,0.601,1.058,0.975,���쐼,5.6,��
2016/10/09,05:10,1.140,1.871,1.346,2.069,1.446,0.601,1.058,0.977,��,4.9,��
2016/10/09,05:20,1.137,1.876,1.343,2.071,1.447,0.601,1.058,0.976,��,5.8,��
2016/10/09,05:30,1.141,1.874,1.346,2.070,1.447,0.600,1.059,0.977,��,6.0,��
2016/10/09,05:40,1.139,1.877,1.345,2.069,1.445,0.600,1.059,0.973,���k��,7.4,��
2016/10/09,05:50,1.137,1.877,1.349,2.068,1.448,0.602,1.060,0.975,��,6.9,��
2016/10/09,06:00,1.138,1.875,1.346,2.069,1.446,0.602,1.057,0.977,���k��,6.3,��
2016/10/09,06:10,1.137,1.877,1.346,2.070,1.447,0.598,1.058,0.976,���k��,5.5,��
2016/10/09,06:20,1.138,1.876,1.344,2.068,1.447,0.599,1.059,0.975,���k��,4.9,��
2016/10/09,06:30,1.136,1.880,1.344,2.071,1.446,0.599,1.059,0.974,�k��,5.6,��
2016/10/09,06:40,1.136,1.878,1.345,2.071,1.447,0.600,1.058,0.975,���k��,3.4,��
2016/10/09,06:50,1.135,1.874,1.344,2.069,1.444,0.602,1.057,0.974,�k�k��,2.1,��
2016/10/09,07:00,1.137,1.877,1.346,2.068,1.447,0.599,1.059,0.972,�k�k��,0.8,��
2016/10/09,07:10,1.137,1.879,1.347,2.069,1.446,0.599,1.057,0.972,�k�k��,1.6,��
2016/10/09,07:20,1.140,1.877,1.349,2.070,1.449,0.599,1.058,0.976,�k�k��,3.8,��
2016/10/09,07:30,1.138,1.876,1.347,2.072,1.448,0.601,1.059,0.976,�k��,4.5,��
2016/10/09,07:40,1.137,1.882,1.347,2.070,1.448,0.598,1.059,0.976,���k��,3.6,��
2016/10/09,07:50,1.137,1.880,1.345,2.071,1.447,0.598,1.059,0.975,���k��,3.9,��
2016/10/09,08:00,1.137,1.881,1.344,2.071,1.447,0.601,1.059,0.977,���k��,3.9,�L
2016/10/09,08:10,1.138,1.876,1.346,2.070,1.449,0.600,1.059,0.974,���k��,3.8,��
2016/10/09,08:20,1.136,1.878,1.345,2.069,1.447,0.599,1.058,0.974,���k��,4.7,��
2016/10/09,08:30,1.139,1.878,1.345,2.072,1.449,0.599,1.058,0.976,�k��,3.8,��
2016/10/09,08:40,1.138,1.879,1.344,2.073,1.447,0.600,1.058,0.974,�k��,4.4,��
2016/10/09,08:50,1.138,1.879,1.347,2.070,1.449,0.600,1.060,0.976,�k��,5.2,��
2016/10/09,09:00,1.138,1.880,1.347,2.071,1.448,0.601,1.059,0.978,�k�k��,4.9,��
2016/10/09,09:10,1.140,1.881,1.347,2.072,1.445,0.599,1.059,0.978,�k�k��,5.0,��
2016/10/09,09:20,1.139,1.877,1.346,2.074,1.448,0.599,1.060,0.975,�k�k��,6.4,��
2016/10/09,09:30,1.138,1.880,1.348,2.076,1.448,0.601,1.061,0.976,�k�k��,4.7,��
2016/10/09,09:40,1.138,1.881,1.344,2.072,1.451,0.600,1.058,0.977,�k,6.0,��
2016/10/09,09:50,1.137,1.880,1.346,2.070,1.447,0.597,1.059,0.977,�k�k��,6.9,��
2016/10/09,10:00,1.137,1.881,1.345,2.072,1.450,0.600,1.059,0.976,�k,5.2,��
2016/10/09,10:10,1.140,1.881,1.346,2.073,1.449,0.598,1.058,0.975,�k�k��,5.6,��
2016/10/09,10:20,1.136,1.879,1.345,2.073,1.448,0.599,1.059,0.975,�k��,3.3,��
2016/10/09,10:30,1.137,1.878,1.346,2.073,1.449,0.598,1.059,0.975,�k��,6.0,��
2016/10/09,10:40,1.136,1.881,1.345,2.074,1.451,0.597,1.057,0.974,�k�k��,7.1,��
2016/10/09,10:50,1.134,1.879,1.345,2.075,1.446,0.595,1.059,0.976,�k�k��,7.1,��
2016/10/09,11:00,1.132,1.881,1.346,2.073,1.447,0.597,1.057,0.976,�k�k��,5.2,��
2016/10/09,11:10,1.133,1.878,1.347,2.073,1.449,0.596,1.057,0.976,�k��,0.6,�L
2016/10/09,11:20,1.137,1.879,1.344,2.073,1.445,0.597,1.056,0.973,�쐼,2.1,�L
2016/10/09,11:30,1.138,1.878,1.344,2.072,1.445,0.597,1.056,0.974,��쐼,1.4,��
2016/10/09,11:40,1.136,1.881,1.347,2.074,1.448,0.597,1.057,0.974,�k��,2.8,��
2016/10/09,11:50,1.138,1.881,1.347,2.073,1.448,0.597,1.056,0.974,�k�k��,4.2,��
2016/10/09,12:00,1.139,1.885,1.345,2.070,1.449,0.597,1.057,0.975,�k�k��,3.8,��
2016/10/09,12:10,1.140,1.885,1.348,2.074,1.447,0.597,1.059,0.974,�k,4.1,��
2016/10/09,12:20,1.139,1.882,1.347,2.074,1.447,0.597,1.059,0.975,�k�k��,3.6,��
2016/10/09,12:30,1.139,1.884,1.345,2.073,1.448,0.596,1.060,0.976,�k�k��,4.1,��
2016/10/09,12:40,1.137,1.885,1.346,2.071,1.447,0.596,1.058,0.976,�k�k��,2.4,��
2016/10/09,12:50,1.138,1.885,1.347,2.074,1.445,0.596,1.056,0.976,�k��,2.0,��
2016/10/09,13:00,1.137,1.882,1.347,2.071,1.447,0.597,1.058,0.975,�k�k��,2.1,��
2016/10/09,13:10,1.135,1.880,1.347,2.074,1.447,0.597,1.059,0.978,�k�k��,2.2,��
2016/10/09,13:20,1.138,1.884,1.349,2.076,1.449,0.597,1.059,0.975,�k�k��,1.5,��
2016/10/09,13:30,1.137,1.883,1.344,2.074,1.450,0.595,1.060,0.975,�k��,1.6,��
2016/10/09,13:40,1.137,1.883,1.346,2.076,1.449,0.595,1.058,0.976,���k��,1.3,��
2016/10/09,13:50,1.138,1.882,1.350,2.076,1.450,0.596,1.058,0.977,���쓌,0.8,��
2016/10/09,14:00,1.138,1.881,1.346,2.076,1.448,0.596,1.060,0.977,-,CALM,��
2016/10/09,14:10,1.136,1.881,1.347,2.074,1.450,0.596,1.058,0.975,-,CALM,��
2016/10/09,14:20,1.136,1.882,1.347,2.075,1.446,0.596,1.059,0.975,�k,1.4,��
2016/10/09,14:30,1.136,1.886,1.348,2.078,1.448,0.595,1.061,0.976,�k,2.5,��
2016/10/09,14:40,1.138,1.885,1.350,2.076,1.448,0.597,1.057,0.976,�k,3.6,��
2016/10/09,14:50,1.137,1.887,1.350,2.077,1.452,0.596,1.061,0.975,�k�k��,7.4,��
2016/10/09,15:00,1.137,1.886,1.349,2.076,1.452,0.598,1.060,0.976,�k�k��,9.3,��
2016/10/09,15:10,1.137,1.887,1.348,2.076,1.451,0.597,1.058,0.977,�k�k��,8.3,��
2016/10/09,15:20,1.137,1.886,1.348,2.078,1.450,0.597,1.058,0.975,�k��,9.1,��
2016/10/09,15:30,1.136,1.887,1.346,2.080,1.452,0.596,1.058,0.976,�k��,7.7,��
2016/10/09,15:40,1.140,1.886,1.347,2.080,1.452,0.595,1.058,0.977,�k��,8.5,��
2016/10/09,15:50,1.138,1.887,1.348,2.080,1.450,0.597,1.061,0.977,�k��,8.8,��
2016/10/09,16:00,1.139,1.887,1.348,2.080,1.451,0.596,1.058,0.976,�k��,8.6,��
2016/10/09,16:10,1.138,1.889,1.346,2.081,1.452,0.597,1.057,0.977,�k��,8.9,��
2016/10/09,16:20,1.138,1.892,1.348,2.080,1.451,0.596,1.060,0.976,�k��,9.4,��
2016/10/09,16:30,1.138,1.889,1.348,2.081,1.454,0.597,1.059,0.976,�k��,13.4,��
2016/10/09,16:40,1.136,1.896,1.350,2.080,1.452,0.598,1.060,0.975,�k��,11.6,��
2016/10/09,16:50,1.139,1.892,1.349,2.080,1.452,0.596,1.057,0.977,���k��,11.6,��
2016/10/09,17:00,1.138,1.893,1.351,2.081,1.453,0.596,1.060,0.976,�k��,10.4,��
2016/10/09,17:10,1.141,1.894,1.352,2.081,1.455,0.597,1.059,0.976,�k��,6.3,��
2016/10/09,17:20,1.139,1.893,1.352,2.084,1.457,0.599,1.058,0.976,�k��,6.0,��
2016/10/09,17:30,1.139,1.890,1.350,2.083,1.452,0.598,1.059,0.976,�k�k��,4.9,��
2016/10/09,17:40,1.139,1.890,1.348,2.081,1.456,0.599,1.058,0.977,�k�k��,4.6,��
2016/10/09,17:50,1.138,1.890,1.353,2.085,1.457,0.598,1.059,0.978,�k�k��,4.9,��
2016/10/09,18:00,1.139,1.890,1.350,2.081,1.453,0.598,1.058,0.979,�k��,6.6,��
2016/10/09,18:10,1.140,1.890,1.350,2.083,1.457,0.599,1.060,0.978,�k��,7.7,��
2016/10/09,18:20,1.137,1.892,1.352,2.080,1.455,0.600,1.059,0.980,�k��,9.6,��
2016/10/09,18:30,1.142,1.891,1.352,2.083,1.454,0.598,1.061,0.979,�k��,9.6,��
2016/10/09,18:40,1.141,1.890,1.351,2.082,1.455,0.600,1.060,0.978,�k��,8.8,��
2016/10/09,18:50,1.138,1.891,1.349,2.082,1.456,0.600,1.060,0.978,�k��,8.0,��
2016/10/09,19:00,1.138,1.888,1.350,2.080,1.454,0.599,1.058,0.980,�k��,7.7,��
2016/10/09,19:10,1.138,1.891,1.352,2.080,1.457,0.598,1.061,0.977,�k��,8.0,��
2016/10/09,19:20,1.135,1.890,1.351,2.083,1.452,0.599,1.061,0.977,�k��,7.2,��
2016/10/09,19:30,1.139,1.892,1.352,2.079,1.456,0.599,1.061,0.979,�k��,6.9,��
2016/10/09,19:40,1.139,1.891,1.351,2.083,1.456,0.599,1.059,0.980,�k��,7.4,��
2016/10/09,19:50,1.138,1.889,1.351,2.083,1.455,0.598,1.060,0.979,�k��,7.1,��
2016/10/09,20:00,1.138,1.889,1.349,2.080,1.457,0.598,1.061,0.978,�k��,5.5,��
2016/10/09,20:10,1.137,1.892,1.352,2.080,1.453,0.596,1.059,0.975,�k��,6.9,��
2016/10/09,20:20,1.140,1.890,1.352,2.082,1.455,0.598,1.061,0.976,�k��,7.7,��
2016/10/09,20:30,1.136,1.890,1.350,2.080,1.452,0.596,1.061,0.978,�k��,6.3,��
2016/10/09,20:40,1.140,1.892,1.349,2.081,1.455,0.598,1.059,0.978,�k��,5.8,��
2016/10/09,20:50,1.137,1.888,1.349,2.083,1.453,0.597,1.062,0.976,�k��,6.4,��
2016/10/09,21:00,1.138,1.894,1.349,2.082,1.455,0.598,1.060,0.978,�k��,6.9,��
2016/10/09,21:10,1.136,1.890,1.349,2.081,1.455,0.596,1.061,0.980,�k��,6.3,��
2016/10/09,21:20,1.135,1.887,1.349,2.078,1.456,0.596,1.060,0.978,�k��,5.6,��
2016/10/09,21:30,1.138,1.887,1.351,2.081,1.454,0.597,1.061,0.976,�k��,6.1,��
2016/10/09,21:40,1.140,1.887,1.350,2.081,1.454,0.596,1.061,0.980,�k��,6.1,��
2016/10/09,21:50,1.137,1.890,1.349,2.084,1.456,0.598,1.060,0.978,�k��,8.3,��
2016/10/09,22:00,1.138,1.892,1.349,2.081,1.454,0.597,1.062,0.978,�k��,8.5,��
2016/10/09,22:10,1.137,1.891,1.348,2.085,1.455,0.597,1.060,0.978,�k��,8.2,��
2016/10/09,22:20,1.138,1.890,1.348,2.083,1.453,0.596,1.062,0.978,�k��,7.5,��
2016/10/09,22:30,1.138,1.891,1.346,2.085,1.457,0.597,1.061,0.978,�k�k��,8.0,��
2016/10/09,22:40,1.136,1.893,1.348,2.083,1.454,0.596,1.060,0.976,�k��,9.1,��
2016/10/09,22:50,1.138,1.890,1.351,2.086,1.453,0.597,1.062,0.978,�k��,8.3,��
2016/10/09,23:00,1.137,1.890,1.350,2.083,1.454,0.597,1.062,0.977,�k��,7.8,��
2016/10/09,23:10,1.136,1.891,1.349,2.081,1.455,0.596,1.060,0.977,�k��,7.4,��
2016/10/09,23:20,1.135,1.892,1.348,2.082,1.455,0.597,1.061,0.978,�k��,7.4,��
2016/10/09,23:30,1.136,1.891,1.347,2.080,1.454,0.598,1.061,0.977,�k��,6.6,��
2016/10/09,23:40,1.137,1.892,1.350,2.083,1.454,0.597,1.062,0.976,�k��,7.8,��
2016/10/09,23:50,1.135,1.893,1.348,2.086,1.455,0.597,1.060,0.978,�k��,6.4,��
